Location: Clarks Summit,Pa.
(41.5000°N, 75.6000°W)
Time: 12:58:03
(UTC-04:00)

ISS - Visible Passes

Search period start: 15 June 2024 00:00
Search period end: 25 June 2024 00:00
Orbit: 409 x 421 km, 51.6° (Epoch: 14 June)

Date Brightness Start Highest point End Pass type
(mag) Time Alt. Az. Time Alt. Az. Time Alt. Az.
20 Jun -1.4 04:41:02 10° S 04:43:12 16° SE 04:45:24 10° E visible
22 Jun -3.0 04:38:23 11° SSW 04:41:28 44° SE 04:44:41 10° ENE visible
23 Jun -2.2 03:51:10 19° S 03:52:28 25° SE 03:55:15 10° ENE visible
24 Jun -1.4 03:03:53 14° ESE 03:03:53 14° ESE 03:05:22 10° E visible
24 Jun -3.6 04:36:43 11° WSW 04:39:49 67° NNW 04:43:09 10° NE visible
